カタログに戻る

DELTA 1 DEB

運用中SSO
NORAD 21450·DEBRIS·🇺🇸 United States

打ち上げ Jun 12, 1975 から Vandenberg Space Force Base

Loading…

次のパス (今後24時間)

TLE

最新Source: Space-Track

元期: Sep 14, 2026, 04:35 UTC

1 21450U 75052EJ  26257.19107750  .00000116  00000-0  31012-3 0  9991
2 21450  99.8346 140.0613 0060277  38.6731 112.8857 13.35416337721297

AllMySatでDELTA 1 DEBをリアルタイム追跡

Download on the App Store